DW8847 Weather Reports


time (UTC)temp
C
wind
direction
speed
KPH
gust
KPH
rain 1hr
cm
rain 24hr
cm
rain mn
cm
humidity
%
barometer
mb
20260507145539 17 360 1.6 8.0 0.08 0.66 0.08 72 1012.4
20260507145041 18 5 0.0 6.4 0.00 0.58 0.00 73 1012.1
20260507144548 18 13 0.0 8.0 0.00 0.58 0.00 71 1011.5
20260507144041 19 137 0.0 8.0 0.00 0.58 0.00 69 1011.1
20260507143538 19 196 1.6 9.7 0.00 0.58 0.00 68 1010.9
20260507143039 19 355 1.6 9.7 0.00 0.58 0.00 67 1010.8
20260507142538 19 319 0.0 6.4 0.00 0.58 0.00 65 1010.8
20260507142044 19 355 1.6 11.3 0.00 0.58 0.00 63 1011.0
20260507141537 19 217 3.2 16.1 0.00 0.58 0.00 64 1011.1
20260507141038 20 216 3.2 16.1 0.00 0.58 0.00 66 1011.1
20260507140538 20 183 4.8 16.1 0.00 0.58 0.00 65 1011.1
20260507140040 20 236 4.8 12.9 0.00 0.58 0.00 63 1011.1
20260507135538 20 188 3.2 16.1 0.00 0.64 0.00 60 1011.1
20260507135037 21 262 4.8 16.1 0.00 0.64 0.00 59 1011.2
20260507134537 21 290 3.2 14.5 0.00 0.64 0.00 61 1011.2
20260507134037 21 170 4.8 22.5 0.00 0.64 0.00 60 1011.1
20260507133537 20 232 8.0 22.5 0.00 0.64 0.00 61 1011.1
20260507133038 21 153 3.2 12.9 0.00 0.64 0.00 60 1011.0
20260507132536 21 194 8.0 14.5 0.00 0.64 0.00 60 1011.1
20260507132036 21 218 3.2 12.9 0.00 0.64 0.00 60 1011.2
20260507131537 21 230 3.2 11.3 0.00 0.64 0.00 62 1011.3
20260507131036 20 219 4.8 14.5 0.00 0.64 0.00 61 1011.4
20260507130535 21 213 4.8 14.5 0.00 0.64 0.00 64 1011.3
20260507130040 21 220 3.2 12.9 0.00 0.64 0.00 58 1011.3
20260507125535 21 233 4.8 12.9 0.00 0.89 0.00 58 1011.3
20260507125036 21 205 3.2 12.9 0.00 0.89 0.00 56 1011.2
20260507124537 21 188 8.0 11.3 0.00 0.89 0.00 53 1011.3
20260507124035 21 115 1.6 9.7 0.00 0.89 0.00 54 1011.2
20260507123535 20 162 3.2 9.7 0.00 0.89 0.00 58 1011.3
20260507123041 20 188 1.6 8.0 0.00 0.89 0.00 56 1011.4
20260507122534 20 205 1.6 12.9 0.00 0.89 0.00 57 1011.4
20260507122037 20 237 1.6 12.9 0.00 0.89 0.00 55 1011.4
20260507121534 21 169 1.6 4.8 0.00 0.89 0.00 58 1011.5
20260507121032 20 222 1.6 4.8 0.00 0.89 0.00 56 1011.5
20260507120535 20 182 0.0 4.8 0.00 0.89 0.00 56 1011.6
20260507120033 21 160 0.0 9.7 0.00 0.89 0.00 57 1011.6
20260507115533 21 251 1.6 9.7 0.00 0.91 0.00 58 1011.5
20260507115033 20 165 3.2 11.3 0.00 0.91 0.00 62 1011.7
20260507114532 21 195 4.8 11.3 0.00 0.91 0.00 59 1011.6
20260507114034 21 180 4.8 11.3 0.00 0.91 0.00 58 1011.7
20260507113532 22 59 1.6 8.0 0.00 0.91 0.00 60 1011.5
20260507113031 21 14 0.0 8.0 0.00 0.91 0.00 55 1011.6
20260507112533 21 99 0.0 11.3 0.00 0.91 0.00 56 1011.8
20260507112030 20 238 1.6 11.3 0.00 0.91 0.00 61 1011.8
20260507111536 21 198 1.6 6.4 0.00 0.91 0.00 60 1011.8
20260507111029 20 59 1.6 6.4 0.00 0.91 0.00 60 1011.9
20260507110529 21 155 1.6 8.0 0.00 0.91 0.00 58 1012.0
20260507110032 21 107 1.6 8.0 0.00 0.91 0.00 60 1012.0
20260507105530 21 134 0.0 3.2 0.00 0.99 0.00 59 1011.9
20260507105028 21 149 0.0 6.4 0.00 0.99 0.00 57 1012.0
20260507104528 21 235 1.6 8.0 0.00 0.99 0.00 57 1012.1
20260507104028 21 191 1.6 8.0 0.00 0.99 0.00 56 1012.1
20260507103526 21 146 0.0 3.2 0.00 0.99 0.00 61 1012.2
20260507103027 20 92 0.0 8.0 0.00 0.99 0.00 64 1012.3
20260507102526 20 281 0.0 8.0 0.00 0.99 0.00 67 1012.4
20260507102026 20 205 1.6 8.0 0.00 0.99 0.00 70 1012.3
20260507101525 21 73 1.6 4.8 0.00 0.99 0.00 63 1012.3
20260507101027 21 182 0.0 9.7 0.00 0.99 0.00 63 1012.3
20260507100524 20 76 3.2 9.7 0.00 0.99 0.00 68 1012.4
20260507100024 20 180 0.0 9.7 0.00 0.99 0.00 69 1012.4
20260507095524 21 194 1.6 9.7 0.00 1.09 0.00 63 1012.3
20260507095024 21 190 0.0 8.0 0.00 1.09 0.00 66 1012.3
20260507094524 20 167 1.6 8.0 0.00 1.09 0.00 69 1012.3
20260507094021 20 118 0.0 6.4 0.00 1.09 0.00 67 1012.2
20260507093521 20 118 1.6 6.4 0.00 1.09 0.00 69 1012.3
20260507093022 19 122 0.0 3.2 0.00 1.09 0.00 69 1012.2
20260507092521 19 122 0.0 4.8 0.00 1.09 0.00 68 1012.2
20260507092021 19 132 0.0 4.8 0.00 1.09 0.00 70 1012.2
20260507091521 19 67 1.6 6.4 0.00 1.09 0.00 73 1012.2
20260507091021 20 92 0.0 8.0 0.00 1.09 0.00 69 1012.2
20260507090522 20 78 0.0 6.4 0.00 1.09 0.00 69 1012.3
20260507090019 20 46 0.0 6.4 0.00 1.09 0.00 68 1012.3
20260507085519 19 53 1.6 4.8 0.00 1.09 0.00 67 1012.2
20260507085018 20 35 0.0 6.4 0.00 1.09 0.00 69 1012.3
20260507084518 20 83 1.6 8.0 0.00 1.09 0.00 69 1012.2
20260507084023 19 62 3.2 8.0 0.00 1.09 0.00 71 1012.3
20260507083515 18 30 0.0 6.4 0.00 1.09 0.00 71 1012.2
20260507083020 18 63 0.0 6.4 0.00 1.09 0.00 70 1012.2
20260507082514 18 88 1.6 8.0 0.00 1.09 0.00 74 1012.1
20260507082014 18 84 0.0 3.2 0.00 1.09 0.00 75 1012.1
20260507081522 18 84 0.0 3.2 0.00 1.09 0.00 73 1012.0
20260507081013 18 84 0.0 6.4 0.00 1.09 0.00 72 1012.0
20260507080518 19 76 1.6 6.4 0.00 1.09 0.00 73 1012.1
20260507080016 19 67 1.6 4.8 0.00 1.09 0.00 73 1012.1
20260507075510 19 60 0.0 3.2 0.00 1.09 0.00 74 1012.0
20260507075009 18 59 0.0 3.2 0.00 1.09 0.00 74 1012.0
20260507074508 18 59 0.0 4.8 0.00 1.09 0.00 74 1012.0
20260507074008 18 57 1.6 6.4 0.00 1.09 0.00 75 1012.1
20260507073505 18 53 1.6 8.0 0.00 1.09 0.00 77 1012.0
20260507073005 18 57 0.0 8.0 0.00 1.09 0.00 75 1012.1
20260507072506 18 102 1.6 6.4 0.00 1.09 0.00 77 1012.1
20260507072004 18 38 1.6 6.4 0.00 1.09 0.00 76 1012.0
20260507071501 17 45 0.0 8.0 0.00 1.09 0.00 79 1012.0
20260507071101 17 57 1.6 8.0 0.00 1.09 0.00 79 1012.0
20260507070600 17 67 3.2 8.0 0.00 1.09 0.00 79 1011.9
20260507070059 17 71 3.2 6.4 0.00 1.09 0.00 81 1011.7
20260507065558 17 65 3.2 6.4 0.00 1.12 0.00 82 1011.8
20260507065057 17 57 1.6 6.4 0.00 1.12 0.00 83 1011.8
20260507064613 17 53 1.6 6.4 0.00 1.12 0.00 83 1011.8
20260507064056 16 19 3.2 8.0 0.00 1.12 0.00 84 1011.8
20260507063555 16 48 3.2 8.0 0.00 1.12 0.00 84 1011.8
20260507063056 16 59 1.6 6.4 0.00 1.12 0.00 86 1011.7
20260507062552 16 38 1.6 8.0 0.00 1.12 0.00 86 1011.7
20260507062051 16 40 3.2 8.0 0.00 1.12 0.00 87 1011.7
20260507061550 15 22 4.8 8.0 0.00 1.12 0.00 88 1011.6
20260507061048 15 37 3.2 9.7 0.00 1.12 0.00 90 1011.5
20260507060548 15 26 3.2 9.7 0.00 1.12 0.00 90 1011.5
20260507060052 15 33 4.8 8.0 0.00 1.12 0.00 90 1011.5
20260507055547 15 30 1.6 8.0 0.00 1.14 0.00 90 1011.5
20260507055046 14 36 1.6 8.0 0.00 1.14 0.00 90 1011.5
20260507054548 15 34 3.2 8.0 0.00 1.14 0.00 89 1011.4
20260507054045 15 59 3.2 8.0 0.00 1.14 0.00 89 1011.3
20260507053544 15 44 3.2 6.4 0.00 1.14 0.00 90 1011.2
20260507053045 15 33 1.6 4.8 0.00 1.14 0.00 90 1011.2
20260507052545 15 40 3.2 8.0 0.00 1.14 0.00 90 1011.1
20260507052041 14 53 1.6 8.0 0.00 1.14 0.00 91 1011.1
20260507051540 14 28 3.2 6.4 0.00 1.14 0.00 91 1011.0
20260507051038 14 45 1.6 4.8 0.00 1.14 0.00 91 1010.9
20260507050538 14 46 1.6 4.8 0.00 1.14 0.00 91 1010.9
20260507050040 14 35 0.0 4.8 0.00 1.14 0.00 92 1010.8
20260507045540 14 35 0.0 4.8 0.00 1.14 0.00 92 1010.8
20260507045036 14 35 0.0 3.2 0.00 1.14 0.00 92 1010.7
20260507044535 14 35 0.0 3.2 0.00 1.14 0.00 92 1010.6
20260507044036 14 35 0.0 3.2 0.00 1.14 0.00 92 1010.5
20260507043538 14 35 1.6 3.2 0.00 1.14 0.00 92 1010.5
20260507043035 14 35 0.0 3.2 0.00 1.14 0.00 92 1010.5
20260507042534 14 35 0.0 4.8 0.00 1.14 0.00 92 1010.6
20260507042034 14 35 1.6 4.8 0.00 1.14 0.00 92 1010.5
20260507041547 13 44 1.6 4.8 0.00 1.14 0.00 92 1010.4
20260507041035 13 62 0.0 3.2 0.00 1.14 0.00 92 1010.4
20260507040534 13 62 0.0 3.2 0.00 1.14 0.00 92 1010.4
20260507040032 13 62 1.6 3.2 0.00 1.14 0.00 92 1010.3
20260507035531 13 62 0.0 3.2 0.00 1.14 0.00 92 1010.3
20260507035031 13 62 0.0 3.2 0.00 1.14 0.00 92 1010.3
20260507034531 13 62 0.0 0.0 0.00 1.14 0.00 92 1010.4
20260507034031 13 62 0.0 0.0 0.00 1.14 0.00 92 1010.4
20260507033533 14 62 0.0 0.0 0.00 1.14 0.00 92 1010.4
20260507033034 14 62 0.0 1.6 0.00 1.14 0.00 92 1010.4
20260507032531 14 62 0.0 3.2 0.00 1.14 0.00 92 1010.4
20260507032030 14 62 0.0 3.2 0.00 1.14 0.00 92 1010.3
20260507031530 14 62 0.0 3.2 0.00 1.14 0.00 92 1010.3
20260507031030 14 62 0.0 3.2 0.00 1.14 0.00 92 1010.4
20260507030530 14 62 0.0 3.2 0.00 1.14 0.00 92 1010.4
20260507030030 14 62 0.0 3.2 0.00 1.14 0.00 92 1010.4
20260507025529 14 62 0.0 3.2 0.00 1.14 0.00 92 1010.4
20260507025029 14 62 0.0 3.2 0.00 1.14 0.00 92 1010.4
20260507024529 14 62 0.0 3.2 0.00 1.14 0.00 92 1010.4
20260507024030 14 62 0.0 0.0 0.00 1.14 0.00 92 1010.4
20260507023529 14 62 0.0 0.0 0.00 1.14 0.00 92 1010.3
20260507023030 14 62 0.0 1.6 0.00 1.14 0.00 92 1010.3
20260507022528 14 62 0.0 1.6 0.00 1.14 0.00 92 1010.3
20260507022029 14 62 0.0 0.0 0.00 1.14 0.00 92 1010.3
20260507021528 14 62 0.0 3.2 0.00 1.14 0.00 92 1010.3
20260507021031 14 62 0.0 3.2 0.00 1.14 0.00 92 1010.3
20260507020528 14 62 0.0 3.2 0.00 1.14 0.00 92 1010.2
20260507020029 14 62 0.0 3.2 0.00 1.14 0.00 92 1010.3
20260507015527 13 62 0.0 3.2 0.00 1.14 0.00 92 1010.2
20260507015031 13 62 0.0 1.6 0.00 1.14 0.00 91 1010.2
20260507014546 14 62 0.0 0.0 0.00 1.14 0.00 91 1010.3
20260507014031 14 62 0.0 1.6 0.00 1.14 0.00 91 1010.3
20260507013527 14 62 0.0 1.6 0.00 1.14 0.00 92 1010.2
20260507013040 14 62 0.0 0.0 0.00 1.14 0.00 92 1010.2
20260507012528 14 62 0.0 3.2 0.00 1.14 0.00 92 1010.2
20260507012030 14 62 0.0 3.2 0.00 1.14 0.00 92 1010.3
20260507011535 14 62 0.0 3.2 0.00 1.14 0.00 92 1010.2
20260507011025 14 62 0.0 3.2 0.00 1.14 0.00 92 1010.3
20260507010525 14 62 0.0 0.0 0.00 1.14 0.00 92 1010.3
20260507010029 14 62 0.0 0.0 0.00 1.14 0.00 92 1010.4
20260507005524 14 62 0.0 0.0 0.00 1.14 0.00 92 1010.3
20260507005024 14 62 0.0 0.0 0.00 1.14 0.00 92 1010.4
20260507004524 14 62 0.0 0.0 0.00 1.14 0.00 92 1010.3
20260507004025 14 62 0.0 0.0 0.00 1.14 0.00 92 1010.3
20260507003524 14 62 0.0 0.0 0.00 1.14 0.00 92 1010.3
20260507003024 14 62 0.0 0.0 0.00 1.14 0.00 92 1010.4
20260507002523 14 62 0.0 0.0 0.00 1.14 0.00 92 1010.4
20260507002023 14 62 0.0 0.0 0.00 1.14 0.00 92 1010.3
20260507001521 14 62 0.0 0.0 0.00 1.14 0.00 92 1010.3
20260507001022 13 62 0.0 0.0 0.00 1.14 0.00 91 1010.4
20260507000526 13 62 0.0 0.0 0.00 1.14 0.00 91 1010.4
20260507000028 13 62 0.0 0.0 0.00 1.14 0.00 91 1010.4
20260506235522 13 62 0.0 0.0 0.00 1.14 0.00 91 1010.5
20260506235021 13 62 0.0 3.2 0.00 1.14 0.00 91 1010.4
20260506234521 13 62 0.0 3.2 0.00 1.14 0.00 91 1010.4
20260506234022 13 62 0.0 0.0 0.00 1.14 0.00 91 1010.4
20260506233520 13 62 0.0 3.2 0.00 1.14 0.00 90 1010.4
20260506233023 13 62 0.0 3.2 0.00 1.14 0.00 90 1010.5
20260506232522 13 62 0.0 3.2 0.00 1.14 0.00 90 1010.5
20260506232019 13 62 0.0 0.0 0.00 1.14 0.00 90 1010.5
20260506231518 13 62 0.0 1.6 0.00 1.14 0.00 90 1010.6
20260506231018 13 62 0.0 3.2 0.00 1.14 0.00 90 1010.5
20260506230518 13 62 0.0 3.2 0.00 1.14 0.00 90 1010.4
20260506230017 13 62 0.0 4.8 0.00 1.14 0.00 90 1010.5
20260506225521 13 62 0.0 4.8 0.00 1.14 0.00 90 1010.6
20260506225017 13 62 0.0 4.8 0.00 1.14 0.00 90 1010.6
20260506224519 13 62 1.6 4.8 0.00 1.14 0.00 90 1010.6
20260506224016 13 61 0.0 3.2 0.00 1.14 0.00 90 1010.6
20260506223517 14 62 0.0 3.2 0.00 1.14 0.00 90 1010.6
20260506223016 14 61 0.0 3.2 0.00 1.14 0.00 90 1010.5
20260506222517 14 65 0.0 4.8 0.00 1.14 0.00 90 1010.5
20260506222014 14 65 1.6 4.8 0.00 1.14 0.00 90 1010.5
20260506221514 14 65 1.6 4.8 0.00 1.14 0.00 90 1010.5
20260506221016 14 65 0.0 3.2 0.00 1.14 0.00 90 1010.4
20260506220514 14 65 0.0 1.6 0.00 1.14 0.00 90 1010.4
20260506220012 14 65 0.0 3.2 0.00 1.14 0.00 90 1010.4
20260506215517 14 65 0.0 6.4 0.00 1.14 1.14 90 1010.4
20260506215012 14 65 1.6 6.4 0.00 1.14 1.14 90 1010.4
20260506214512 14 74 0.0 3.2 0.00 1.14 1.14 90 1010.5
20260506214011 14 74 0.0 3.2 0.00 1.14 1.14 90 1010.5
20260506213511 14 74 0.0 3.2 0.00 1.14 1.14 90 1010.5
20260506213014 14 74 0.0 3.2 0.00 1.14 1.14 91 1010.5
20260506212512 14 109 0.0 3.2 0.00 1.14 1.14 91 1010.5
20260506212012 14 111 0.0 1.6 0.00 1.14 1.14 91 1010.5
20260506211510 14 111 0.0 3.2 0.00 1.14 1.14 91 1010.5
20260506211011 15 111 0.0 3.2 0.00 1.14 1.14 91 1010.6
20260506210511 15 111 0.0 3.2 0.00 1.14 1.14 91 1010.6
20260506210014 15 69 0.0 1.6 0.00 1.14 1.14 91 1010.6
20260506205511 15 69 0.0 3.2 0.00 1.17 1.14 91 1010.6
20260506205010 15 69 0.0 4.8 0.00 1.17 1.14 91 1010.6
20260506204510 15 72 0.0 4.8 0.00 1.17 1.14 91 1010.6
20260506204010 15 192 0.0 3.2 0.00 1.17 1.14 91 1010.6
20260506203510 15 196 0.0 3.2 0.00 1.17 1.14 91 1010.6
20260506203010 15 196 0.0 0.0 0.00 1.17 1.14 91 1010.5
20260506202510 15 196 0.0 0.0 0.00 1.17 1.14 91 1010.5
20260506202013 15 196 0.0 0.0 0.00 1.17 1.14 91 1010.4
20260506201509 15 196 0.0 3.2 0.00 1.17 1.14 91 1010.4
20260506201010 15 196 0.0 3.2 0.00 1.17 1.14 91 1010.4
20260506200509 15 196 0.0 3.2 0.00 1.17 1.14 91 1010.3
20260506200009 15 196 0.0 3.2 0.00 1.17 1.14 91 1010.4
20260506195509 15 196 0.0 0.0 0.00 1.30 1.14 91 1010.3
20260506195009 15 196 0.0 0.0 0.00 1.30 1.14 91 1010.3
20260506194511 15 196 0.0 0.0 0.00 1.30 1.14 91 1010.2
20260506194009 15 196 0.0 0.0 0.00 1.30 1.14 91 1010.1
20260506193509 15 196 0.0 0.0 0.00 1.30 1.14 91 1010.0
20260506193008 15 196 0.0 1.6 0.00 1.30 1.14 91 1010.0
20260506192509 15 196 0.0 1.6 0.00 1.30 1.14 91 1009.9
20260506192008 15 196 0.0 3.2 0.00 1.30 1.14 91 1009.9
20260506191508 15 196 0.0 3.2 0.00 1.30 1.14 91 1009.9
20260506191008 16 196 0.0 4.8 0.00 1.30 1.14 91 1009.8
20260506190509 16 196 0.0 4.8 0.00 1.30 1.14 91 1009.7
20260506190008 15 196 0.0 4.8 0.00 1.30 1.14 91 1009.6
20260506185508 15 182 0.0 3.2 0.00 1.35 1.14 91 1009.5
20260506185007 16 180 0.0 3.2 0.00 1.35 1.14 91 1009.5
20260506184507 16 180 0.0 3.2 0.00 1.35 1.14 91 1009.4
20260506184007 15 180 0.0 3.2 0.00 1.35 1.14 91 1009.5
20260506183507 16 167 0.0 3.2 0.00 1.35 1.14 91 1009.5
20260506183007 16 167 0.0 3.2 0.00 1.35 1.14 91 1009.5
20260506182507 15 167 0.0 0.0 0.00 1.35 1.14 91 1009.5
20260506182010 15 167 0.0 0.0 0.00 1.35 1.14 91 1009.4
20260506181506 15 167 0.0 0.0 0.00 1.35 1.14 90 1009.4
20260506181007 15 167 0.0 0.0 0.00 1.35 1.14 90 1009.4
20260506180510 15 167 0.0 0.0 0.00 1.35 1.14 90 1009.4
20260506180006 15 167 0.0 0.0 0.00 1.35 1.14 90 1009.5
20260506175507 15 167 0.0 0.0 0.00 1.37 1.14 90 1009.5
20260506175006 15 167 0.0 0.0 0.00 1.37 1.14 90 1009.5
20260506174505 15 167 0.0 3.2 0.00 1.37 1.14 90 1009.4
20260506174008 15 167 0.0 3.2 0.00 1.37 1.14 90 1009.5
20260506173506 15 167 0.0 3.2 0.00 1.37 1.14 90 1009.4
20260506173005 15 167 0.0 3.2 0.00 1.37 1.14 90 1009.4
20260506172505 15 167 0.0 3.2 0.00 1.37 1.14 90 1009.4
20260506172007 15 167 0.0 3.2 0.00 1.37 1.14 90 1009.3
20260506171505 15 167 0.0 3.2 0.00 1.37 1.14 90 1009.2
20260506171007 15 167 0.0 4.8 0.00 1.37 1.14 90 1009.1
20260506170504 15 167 0.0 4.8 0.03 1.37 1.14 90 1009.0
20260506170006 15 215 0.0 4.8 0.05 1.37 1.14 90 1009.1
20260506165504 15 215 0.0 4.8 0.05 1.45 1.14 90 1009.2
20260506165004 15 215 0.0 4.8 0.05 1.45 1.14 90 1009.2
20260506164504 15 215 0.0 6.4 0.08 1.45 1.14 89 1009.2
20260506164004 15 215 1.6 6.4 0.13 1.45 1.14 89 1009.2
20260506163503 15 240 0.0 3.2 0.15 1.45 1.14 89 1009.2
20260506163010 15 267 0.0 4.8 0.18 1.45 1.14 89 1009.3
20260506162503 15 200 1.6 6.4 0.23 1.45 1.14 89 1009.3
20260506162007 15 219 0.0 6.4 0.30 1.45 1.14 89 1009.2
20260506161507 15 180 3.2 9.7 0.38 1.45 1.14 89 1009.2
20260506161003 15 189 1.6 12.9 0.43 1.45 1.14 89 1009.2
20260506160502 15 179 3.2 16.1 0.46 1.42 1.12 88 1009.1
20260506160005 15 218 4.8 16.1 0.48 1.42 1.09 88 1009.2
20260506155504 15 232 6.4 17.7 0.51 1.55 1.09 89 1009.1
20260506155002 15 252 6.4 17.7 0.51 1.55 1.09 89 1009.2
20260506154502 15 163 3.2 14.5 0.51 1.52 1.07 89 1009.1
20260506154002 15 173 4.8 16.1 0.46 1.45 1.02 88 1009.0
20260506153502 16 204 6.4 16.1 0.43 1.42 0.99 89 1009.2
20260506153001 16 184 0.0 6.4 0.41 1.42 0.97 89 1009.1
20260506152501 16 192 1.6 6.4 0.33 1.37 0.89 89 1009.1
20260506152004 16 199 0.0 8.0 0.25 1.27 0.81 88 1009.2
20260506151600 16 213 1.6 8.0 0.20 1.22 0.76 88 1009.3
20260506151100 16 188 1.6 8.0 0.15 1.17 0.71 88 1009.3
20260506150600 16 183 1.6 9.7 0.10 1.12 0.66 87 1009.3
20260506150105 16 223 3.2 11.3 0.05 1.09 0.61 86 1009.3